Location: Kutna Hora
(49.9500°N, 15.2670°E)
Time: 02:28:23
(UTC+02:00)

ISS - Pass Details

Date: 31 March 2019
Orbit: 408 x 410 km, 51.6° (Epoch: 23 April)

Event Time Altitude Azimuth Distance (km) Brightness Sun altitude
Rises 22:36:45 0° 287° (WNW) 2,338 0.9 -27.3°
Reaches altitude 10° 22:38:56 10° 279° (W) 1,474 -0.4 -27.5°
Enters shadow 22:39:26 13° 275° (W) 1,283 -0.8 -27.5°
